NK7I Weather Reports


time (UTC)temp
C
wind
direction
speed
KPH
gust
KPH
rain 1hr
cm
rain 24hr
cm
rain mn
cm
humidity
%
barometer
mb
20260504235122 22 56 4.8 8.0 0.00 0.00 0.00 38 1007.7
20260504234622 22 60 6.4 11.3 0.00 0.00 0.00 37 1007.7
20260504234122 23 55 4.8 11.3 0.00 0.00 0.00 38 1007.7
20260504233622 23 66 4.8 11.3 0.00 0.00 0.00 38 1007.7
20260504233122 23 55 6.4 12.9 0.00 0.00 0.00 39 1007.7
20260504232623 23 63 4.8 11.3 0.00 0.00 0.00 38 1007.7
20260504232122 23 64 6.4 14.5 0.00 0.00 0.00 37 1007.8
20260504231622 23 57 6.4 16.1 0.00 0.00 0.00 37 1007.8
20260504231122 23 24 4.8 12.9 0.00 0.00 0.00 36 1007.9
20260504230622 23 53 4.8 12.9 0.00 0.00 0.00 35 1007.8
20260504230122 23 54 6.4 14.5 0.00 0.00 0.00 36 1007.9
20260504225622 24 36 6.4 16.1 0.00 0.00 0.00 35 1008.0
20260504225122 24 44 3.2 11.3 0.00 0.00 0.00 36 1008.0
20260504224622 24 357 3.2 11.3 0.00 0.00 0.00 40 1008.1
20260504224123 23 307 1.6 4.8 0.00 0.00 0.00 37 1008.1
20260504223622 23 359 3.2 8.0 0.00 0.00 0.00 37 1008.2
20260504223122 23 22 3.2 9.7 0.00 0.00 0.00 39 1008.2
20260504222622 23 28 3.2 8.0 0.00 0.00 0.00 34 1008.2
20260504222122 23 47 3.2 11.3 0.00 0.00 0.00 39 1008.2
20260504221622 23 48 3.2 14.5 0.00 0.00 0.00 36 1008.2
20260504221122 23 77 3.2 8.0 0.00 0.00 0.00 39 1008.3
20260504220622 23 50 4.8 12.9 0.00 0.00 0.00 36 1008.4
20260504220122 23 60 3.2 8.0 0.00 0.00 0.00 37 1008.3
20260504215622 23 42 3.2 9.7 0.00 0.00 0.00 36 1008.4
20260504215122 23 41 6.4 12.9 0.00 0.00 0.00 37 1008.5
20260504214622 23 50 6.4 12.9 0.00 0.00 0.00 40 1008.6
20260504214122 23 50 4.8 12.9 0.00 0.00 0.00 39 1008.6
20260504213622 23 43 4.8 12.9 0.00 0.00 0.00 41 1008.6
20260504213122 23 5 3.2 6.4 0.00 0.00 0.00 36 1008.6
20260504212622 23 315 4.8 16.1 0.00 0.00 0.00 37 1008.6
20260504212122 23 30 3.2 8.0 0.00 0.00 0.00 43 1008.7
20260504211622 23 329 1.6 4.8 0.00 0.00 0.00 36 1008.7
20260504211122 23 347 1.6 8.0 0.00 0.00 0.00 38 1008.6
20260504210622 23 279 3.2 8.0 0.00 0.00 0.00 40 1008.7
20260504210122 22 29 3.2 16.1 0.00 0.00 0.00 42 1008.7
20260504205622 22 47 6.4 17.7 0.00 0.00 0.00 38 1008.8
20260504205122 22 49 4.8 12.9 0.00 0.00 0.00 42 1008.9
20260504204622 22 52 1.6 9.7 0.00 0.00 0.00 38 1008.8
20260504204122 22 54 4.8 12.9 0.00 0.00 0.00 39 1008.9
20260504203622 22 24 3.2 6.4 0.00 0.00 0.00 45 1008.8
20260504203122 22 309 4.8 12.9 0.00 0.00 0.00 34 1008.8
20260504202622 22 46 4.8 14.5 0.00 0.00 0.00 40 1008.8
20260504202122 22 326 3.2 12.9 0.00 0.00 0.00 38 1008.9
20260504201622 22 309 3.2 11.3 0.00 0.00 0.00 39 1009.0
20260504201122 21 16 3.2 8.0 0.00 0.00 0.00 38 1009.0
20260504200622 21 30 3.2 11.3 0.00 0.00 0.00 39 1009.0
20260504200122 21 347 3.2 11.3 0.00 0.00 0.00 41 1009.0
20260504195622 21 345 3.2 12.9 0.00 0.00 0.00 44 1009.0
20260504195122 21 46 3.2 16.1 0.00 0.00 0.00 39 1008.9
20260504194622 21 308 3.2 12.9 0.00 0.00 0.00 39 1009.0
20260504194122 21 33 4.8 11.3 0.00 0.00 0.00 37 1009.1
20260504193622 21 42 6.4 24.1 0.00 0.00 0.00 41 1009.0
20260504193122 21 67 3.2 12.9 0.00 0.00 0.00 38 1009.1
20260504192622 21 9 3.2 12.9 0.00 0.00 0.00 42 1009.0
20260504192122 21 26 4.8 12.9 0.00 0.00 0.00 40 1009.1
20260504191622 21 346 4.8 12.9 0.00 0.00 0.00 40 1009.2
20260504191122 21 327 3.2 12.9 0.00 0.00 0.00 41 1009.2
20260504190622 21 339 3.2 12.9 0.00 0.00 0.00 42 1009.3
20260504190122 21 14 3.2 11.3 0.00 0.00 0.00 41 1009.4
20260504185622 21 49 3.2 11.3 0.00 0.00 0.00 40 1009.5
20260504185122 21 35 3.2 6.4 0.00 0.00 0.00 44 1009.6
20260504184622 21 34 3.2 11.3 0.00 0.00 0.00 45 1009.6
20260504184122 21 9 3.2 11.3 0.00 0.00 0.00 40 1009.5
20260504183622 20 44 3.2 12.9 0.00 0.00 0.00 44 1009.6
20260504183122 20 27 3.2 12.9 0.00 0.00 0.00 40 1009.6
20260504182622 20 48 4.8 12.9 0.00 0.00 0.00 42 1009.7
20260504182122 20 26 3.2 14.5 0.00 0.00 0.00 43 1009.7
20260504181622 20 24 4.8 12.9 0.00 0.00 0.00 42 1009.7
20260504181122 20 20 3.2 12.9 0.00 0.00 0.00 43 1009.8
20260504180622 20 23 3.2 12.9 0.00 0.00 0.00 45 1009.8
20260504180122 20 35 4.8 14.5 0.00 0.00 0.00 46 1009.8
20260504175622 19 28 3.2 9.7 0.00 0.00 0.00 44 1009.9
20260504175122 19 37 4.8 11.3 0.00 0.00 0.00 46 1010.0
20260504174622 19 310 4.8 16.1 0.00 0.00 0.00 43 1010.0
20260504174122 19 24 1.6 11.3 0.00 0.00 0.00 43 1010.1
20260504173622 19 43 4.8 17.7 0.00 0.00 0.00 45 1010.0
20260504173122 18 27 3.2 14.5 0.00 0.00 0.00 49 1010.0
20260504172622 18 19 3.2 12.9 0.00 0.00 0.00 49 1010.0
20260504172122 18 10 3.2 11.3 0.00 0.00 0.00 52 1010.0
20260504171622 18 357 1.6 12.9 0.00 0.00 0.00 50 1010.1
20260504171122 18 359 3.2 12.9 0.00 0.00 0.00 54 1010.1
20260504170622 17 24 3.2 11.3 0.00 0.00 0.00 50 1010.1
20260504170122 17 44 3.2 9.7 0.00 0.00 0.00 55 1010.3
20260504160122 13 52 4.8 12.9 0.00 0.00 0.00 59 1010.5
20260504151122 12 54 3.2 8.0 0.00 0.00 0.00 67 1010.8
20260504150622 11 56 4.8 6.4 0.00 0.00 0.00 66 1010.8
20260504150122 11 60 3.2 6.4 0.00 0.00 0.00 67 1010.8
20260504141122 9 58 3.2 4.8 0.00 0.00 0.00 75 1010.5
20260504140622 8 58 3.2 6.4 0.00 0.00 0.00 76 1010.5
20260504140122 8 58 1.6 4.8 0.00 0.00 0.00 76 1010.5
20260504130622 7 58 0.0 0.0 0.00 0.00 0.00 78 1009.6
20260504130122 7 58 0.0 1.6 0.00 0.00 0.00 78 1009.6
20260504120122 7 58 1.6 4.8 0.00 0.00 0.00 77 1009.1
20260504110622 7 58 1.6 6.4 0.00 0.00 0.00 76 1009.1
20260504110122 7 58 3.2 6.4 0.00 0.00 0.00 77 1009.1
20260504100122 8 58 0.0 0.0 0.00 0.00 0.00 78 1008.6
20260504090122 8 58 0.0 0.0 0.00 0.00 0.00 76 1008.3
20260504081623 9 58 0.0 0.0 0.00 0.00 0.00 74 1008.1
20260504081122 9 58 0.0 0.0 0.00 0.00 0.00 72 1008.1
20260504080622 10 58 0.0 0.0 0.00 0.00 0.00 73 1008.0
20260504080122 10 58 0.0 0.0 0.00 0.00 0.00 73 1007.9
20260504060122 12 58 0.0 0.0 0.00 0.00 0.00 65 1007.2
20260504050622 13 58 0.0 0.0 0.00 0.00 0.00 62 1007.4
20260504050122 14 58 0.0 0.0 0.00 0.00 0.00 63 1007.4
20260504045622 14 58 0.0 0.0 0.00 0.00 0.00 62 1007.3
20260504045123 14 58 0.0 0.0 0.00 0.00 0.00 62 1007.2
20260504044622 15 58 0.0 3.2 0.00 0.00 0.00 61 1007.1
20260504044122 15 58 1.6 3.2 0.00 0.00 0.00 60 1007.0
20260504043622 15 58 1.6 4.8 0.00 0.00 0.00 61 1007.0
20260504043122 15 58 0.0 3.2 0.00 0.00 0.00 59 1007.0
20260504042622 15 57 1.6 4.8 0.00 0.00 0.00 57 1007.1
20260504042122 16 55 1.6 6.4 0.00 0.00 0.00 57 1007.0
20260504041622 16 54 0.0 3.2 0.00 0.00 0.00 55 1007.0
20260504041122 16 54 0.0 0.0 0.00 0.00 0.00 55 1007.0
20260504040622 16 54 0.0 0.0 0.00 0.00 0.00 54 1007.0
20260504040122 17 54 0.0 0.0 0.00 0.00 0.00 53 1006.9
20260504035622 17 54 0.0 0.0 0.00 0.00 0.00 49 1007.0
20260504035122 17 54 0.0 0.0 0.00 0.00 0.00 49 1007.0
20260504034623 17 54 0.0 0.0 0.00 0.00 0.00 48 1006.9
20260504034122 17 54 0.0 0.0 0.00 0.00 0.00 47 1006.9
20260504033622 17 54 0.0 0.0 0.00 0.00 0.00 50 1006.9
20260504033122 17 54 0.0 0.0 0.00 0.00 0.00 49 1006.8
20260504032622 17 54 0.0 0.0 0.00 0.00 0.00 48 1006.8
20260504032122 18 54 0.0 0.0 0.00 0.00 0.00 45 1006.8
20260504031622 18 54 0.0 0.0 0.00 0.00 0.00 44 1006.7
20260504031122 18 54 0.0 0.0 0.00 0.00 0.00 47 1006.7
20260504030622 19 54 0.0 0.0 0.00 0.00 0.00 47 1006.6
20260504030122 20 54 0.0 0.0 0.00 0.00 0.00 43 1006.6
20260504025622 20 54 0.0 0.0 0.00 0.00 0.00 43 1006.6
20260504025122 21 54 0.0 3.2 0.00 0.00 0.00 42 1006.6
20260504024622 21 54 0.0 1.6 0.00 0.00 0.00 41 1006.6
20260504024122 22 54 0.0 0.0 0.00 0.00 0.00 39 1006.5
20260504023622 22 54 0.0 0.0 0.00 0.00 0.00 37 1006.5
20260504023122 22 54 0.0 0.0 0.00 0.00 0.00 36 1006.6
20260504022622 23 54 0.0 0.0 0.00 0.00 0.00 36 1006.6
20260504022122 23 54 0.0 0.0 0.00 0.00 0.00 35 1006.7
20260504021622 23 54 0.0 0.0 0.00 0.00 0.00 35 1006.6
20260504021122 23 54 0.0 1.6 0.00 0.00 0.00 35 1006.7
20260504020622 23 54 0.0 1.6 0.00 0.00 0.00 35 1006.6
20260504020122 24 54 0.0 0.0 0.00 0.00 0.00 34 1006.6
20260504015622 24 54 0.0 0.0 0.00 0.00 0.00 35 1006.6
20260504015122 24 54 0.0 0.0 0.00 0.00 0.00 34 1006.7
20260504014622 25 54 0.0 0.0 0.00 0.00 0.00 35 1006.7
20260504014122 25 54 0.0 0.0 0.00 0.00 0.00 35 1006.7
20260504013622 25 54 0.0 1.6 0.00 0.00 0.00 36 1006.7
20260504013122 25 54 0.0 1.6 0.00 0.00 0.00 41 1006.7
20260504012622 25 54 0.0 0.0 0.00 0.00 0.00 35 1006.8
20260504012122 25 54 0.0 1.6 0.00 0.00 0.00 34 1006.8
20260504011622 25 54 0.0 3.2 0.00 0.00 0.00 33 1006.8
20260504011122 25 54 1.6 6.4 0.00 0.00 0.00 34 1006.8
20260504010622 25 54 1.6 4.8 0.00 0.00 0.00 35 1006.9
20260504010122 25 54 1.6 4.8 0.00 0.00 0.00 36 1006.9
20260504005622 25 54 1.6 6.4 0.00 0.00 0.00 36 1006.9
20260504005122 25 54 3.2 4.8 0.00 0.00 0.00 35 1007.1
20260504004622 25 54 3.2 6.4 0.00 0.00 0.00 33 1007.1
20260504004122 25 52 4.8 12.9 0.00 0.00 0.00 33 1007.1
20260504003622 25 50 1.6 6.4 0.00 0.00 0.00 37 1007.2
20260504003122 25 50 3.2 6.4 0.00 0.00 0.00 34 1007.2
20260504002622 25 50 3.2 4.8 0.00 0.00 0.00 36 1007.3
20260504002122 26 50 3.2 8.0 0.00 0.00 0.00 37 1007.3
20260504001622 26 50 1.6 4.8 0.00 0.00 0.00 33 1007.4
20260504001122 26 50 3.2 12.9 0.00 0.00 0.00 37 1007.5
20260504000622 26 26 3.2 12.9 0.00 0.00 0.00 33 1007.4
20260504000122 26 10 3.2 6.4 0.00 0.00 0.00 34 1007.5
20260503235622 26 10 3.2 6.4 0.00 0.00 0.00 35 1007.4